Weather History for Stillwater, OK

Change the Weather History Date:

Sunday, August 17, 2014

  Actual Average Record
Temperature  
Mean Temperature 84 °F -  
Max Temperature 99 °F 92 °F 102 °F (1998)
Min Temperature 69 °F 67 °F 62 °F (2013)
Cooling Degree Days 19    
Growing Degree Days 34 (Base 50)    
Moisture  
Dew Point 67 °F    
Average Humidity 61    
Maximum Humidity 90    
Minimum Humidity 36    
Precipitation  
Precipitation 0.00 in - - ()
Sea Level Pressure  
Sea Level Pressure 29.87 in    
Wind  
Wind Speed 3 mph (South)    
Max Wind Speed 12 mph    
Max Gust Speed -    
Visibility 10 miles    
Events      
Averages and records for this station are not official NWS values.
T = Trace of Precipitation, MM = Missing Value Source: NWS Daily Summary

Daily Weather History Graph

Daily Weather History Graph

Search for Another Location

Airport:

Trip Planner

Search our weather history database for the weather conditions in past years. The results will help you decide how hot, cold, wet, or windy it might be!

Date:

Astronomy

Aug. 17, 2014 Rise Set
Actual Time 6:48 AM CDT 8:16 PM CDT
Civil Twilight 6:21 AM CDT 8:43 PM CDT
Nautical Twilight 5:48 AM CDT 9:15 PM CDT
Astronomical Twilight 5:14 AM CDT 9:49 PM CDT
Moon 12:15 AM CDT (8/17) 2:20 PM CDT (8/17)
Length of Visible Light 14h 22m
Length of Day
13h 27m
Waning Gibbous, 48% of the Moon is Illuminated
Aug 17
Waning Gibbous
Aug 25
New
Sep 2
First Quarter
Sep 8
Full
Sep 15
Last Quarter

Hourly Weather History & Observations

Time (CDT) Temp. Heat Index Dew Point Humidity Pressure Visibility Wind Dir Wind Speed Gust Speed Precip Events Conditions
12:53 AM 75.0 °F - 68.0 °F 79% 29.86 in 10.0 mi Calm Calm - N/A   Clear
2:53 AM 73.9 °F - 66.9 °F 79% 29.86 in 10.0 mi South 3.5 mph - N/A   Clear
3:53 AM 73.0 °F - 66.9 °F 81% 29.86 in 10.0 mi Calm Calm - N/A   Clear
4:53 AM 73.9 °F - 66.9 °F 79% 29.85 in 10.0 mi Calm Calm - N/A   Clear
5:53 AM 71.1 °F - 66.0 °F 84% 29.86 in 10.0 mi South 3.5 mph - N/A   Clear
6:53 AM 69.1 °F - 66.0 °F 90% 29.88 in 10.0 mi Calm Calm - N/A   Clear
7:53 AM 75.0 °F - 69.1 °F 82% 29.90 in 10.0 mi Calm Calm - N/A   Clear
8:53 AM 80.1 °F 82.7 °F 68.0 °F 67% 29.90 in 10.0 mi Calm Calm - N/A   Clear
9:53 AM 84.9 °F 88.2 °F 68.0 °F 57% 29.91 in 10.0 mi SSW 6.9 mph - N/A   Clear
10:53 AM 89.1 °F 92.9 °F 68.0 °F 50% 29.92 in 10.0 mi WSW 5.8 mph - N/A   Clear
11:53 AM 91.9 °F 95.9 °F 68.0 °F 45% 29.92 in 10.0 mi Variable 4.6 mph - N/A   Clear
12:53 PM 93.9 °F 97.5 °F 66.9 °F 41% 29.90 in 10.0 mi Variable 3.5 mph - N/A   Clear
1:53 PM 96.1 °F 101.0 °F 68.0 °F 40% 29.89 in 10.0 mi South 4.6 mph - N/A   Clear
2:53 PM 99.0 °F 105.5 °F 69.1 °F 38% 29.88 in 10.0 mi South 9.2 mph - N/A   Scattered Clouds
3:53 PM 97.0 °F 101.0 °F 66.9 °F 37% 29.86 in 10.0 mi SSE 11.5 mph - N/A   Scattered Clouds
5:53 PM 96.1 °F 98.8 °F 64.9 °F 36% 29.83 in 10.0 mi Calm Calm - N/A   Partly Cloudy
6:53 PM 93.9 °F 97.0 °F 66.0 °F 40% 29.81 in 10.0 mi SE 4.6 mph - N/A   Clear
7:53 PM 91.0 °F 93.8 °F 66.0 °F 44% 29.81 in 10.0 mi NNE 4.6 mph - N/A   Clear
9:53 PM 81.0 °F 83.8 °F 68.0 °F 65% 29.86 in 10.0 mi East 5.8 mph - N/A   Clear
10:53 PM 80.1 °F 82.7 °F 68.0 °F 67% 29.86 in 10.0 mi SSW 3.5 mph - N/A   Clear
11:53 PM 79.0 °F - 69.1 °F 72% 29.88 in 10.0 mi South 8.1 mph - N/A   Clear